Home > Weather > Bambari > Past weeks

Flag for Central African Republic Weather for the Past 2 Weeks in Bambari, Central African Republic

Now
72 °F

Clear.


Feels Like: 77 °F
Forecast: 70 / 104 °F
Wind: No wind

Location: Bangui Airport

Current Time: Feb 15, 2016 at 12:40:28 AM

Latest Report: Feb 14, 2016 at 11:00 PM


Visibility: 4 mi

Pressure: 29.83 "Hg

Humidity: 53%

Dew point: 54 °F

Location of BambariLocation

Historic Weather in Bambari — Graph

°F

Bambari Temperature Yesterday

Maximum temperature yesterday: 99 °F (at 3:00 PM)
Minimum temperature yesterday: 63 °F (at 5:00 AM)
Average temperature yesterday: 78 °F

High & Low Weather Summary for the Past Weeks

 TemperatureHumidityPressure
High102 °F (Feb 5, 2:00 PM)88% (Feb 4, 5:00 AM)30.01 "Hg (Feb 4, 5:00 AM)
Low59 °F (Feb 1, 6:00 AM)10% (Feb 11, 3:00 PM)29.71 "Hg (Feb 5, 3:00 PM)
Average80 °F48%29.85 "Hg
* Reported Jan 31 3:00 PM — Feb 14 11:00 PM, Bambari, Weather by CustomWeather, © 2016

Note: Actual official high and low records may vary slightly from our data, if they occured in-between our weather recording intervals... More about our weather records

Advertising

Bambari Weather History for the Previous 24 Hours

 ConditionsComfort  
Time TempWeatherWind HumidityBarometerVisibility
11:00 PM
Sun, Feb 14
72 °FClear.No wind53%29.83 "Hg4 mi
10:00 PM73 °FClear.2 mph47%29.83 "Hg2 mi
9:00 PM75 °FClear.No wind47%29.80 "Hg2 mi
8:00 PM79 °FClear.2 mph39%29.80 "Hg2 mi
7:00 PM79 °FClear.No wind39%29.77 "Hg2 mi
6:01 PM86 °FClear.1 mph27%29.74 "Hg2 mi
5:00 PM97 °FClear.5 mph14%29.74 "Hg4 mi
4:00 PM99 °FPassing clouds.5 mph10%29.74 "HgN/A
3:00 PM99 °FSunny.3 mph11%29.74 "Hg10 mi
2:00 PM97 °FPassing clouds.7 mph11%29.77 "HgN/A
1:00 PM97 °FPassing clouds.6 mph13%29.80 "HgN/A
11:00 AM91 °FClear.8 mph17%29.89 "Hg4 mi
10:00 AM88 °FHaze.N/A24%29.95 "Hg2 mi
9:00 AM79 °FHaze.2 mph54%29.95 "Hg1 mi
8:00 AM70 °FFog.3 mph69%29.95 "Hg1 mi
7:00 AM64 °FFog.1 mph78%29.92 "Hg1 mi
6:00 AM63 °FFog.3 mph83%29.92 "Hg1 mi
5:00 AM63 °FFog.2 mph83%29.89 "Hg2 mi
4:00 AM64 °FFog.No wind83%29.89 "Hg2 mi
3:00 AM66 °FFog.1 mph73%29.86 "Hg2 mi
2:00 AM66 °FFog.No wind78%29.86 "Hg2 mi
1:00 AM68 °FHaze.No wind78%29.86 "Hg1 mi
12:00 AM70 °FHaze.No wind73%29.86 "Hg1 mi
Weather by CustomWeather, © 2016

See weather overviewHow to use our weather pages